Location: Sternwarte_Laufen
(47.9344°N, 12.9346°E)
Time: 04:04:03
(UTC+02:00)

ISS - Pass Details

Date: 07 July 2025
Orbit: 413 x 417 km, 51.6° (Epoch: 12 July)

Event Time Altitude Azimuth Distance (km) Brightness Sun altitude
Rises 22:00:03 0° 202° (SSW) 2,338 -0.2 -7.3°
Reaches altitude 10° 22:02:34 10° 183° (S) 1,481 -1.4 -7.6°
Maximum altitude 22:04:54 18° 138° (SE) 1,098 -2.3 -7.9°
Drops below altitude 10° 22:07:15 10° 93° (E) 1,490 -1.4 -8.2°
Sets 22:09:47 0° 74° (ENE) 2,357 -0.2 -8.5°
